Home > Weather > Salzburg > Past weeks

Flag for Austria Past Weather in Salzburg, Salzburg, Austria — Yesterday and Last 2 Weeks

Now
78 °F

Passing clouds.


Feels Like: 79 °F
Forecast: 65 / 76 °F
Wind: N/A

Location: Salzburg-Flughafen

Current Time: Aug 28, 2016 at 8:54:43 PM

Latest Report: Aug 28, 2016 at 8:00 PM


Visibility: 28 mi

Pressure: 29.94 "Hg

Humidity: 72%

Dew Point: 68 °F

Location of SalzburgLocation

Past Weather in Salzburg — Graph

°F

Salzburg Temperature Yesterday

Maximum temperature yesterday: 86 °F (at 4:00 PM)
Minimum temperature yesterday: 64 °F (at 5:00 AM)
Average temperature yesterday: 75 °F

High & Low Weather Summary for the Past Weeks

 TemperatureHumidityPressure
High86 °F (Aug 27, 4:00 PM)99% (Aug 16, 2:00 AM)30.43 "Hg (Aug 16, 2:00 AM)
Low53 °F (Aug 23, 6:00 AM)39% (Aug 20, 3:00 PM)29.78 "Hg (Aug 18, 3:00 PM)
Average68 °F76%30.07 "Hg
* Reported Aug 13 7:00 PM — Aug 28 7:00 PM, Salzburg, Weather by CustomWeather, © 2016

Note: Actual official high and low records may vary slightly from our data, if they occured in-between our weather recording intervals... More about our weather records

Advertising

Salzburg Weather History for the Previous 24 Hours

Scroll right to see more
 ConditionsComfort  
Time TempWeatherWind HumidityBarometerVisibility
7:00 PM
Sun, Aug 28
83 °FScattered clouds.N/A52%29.94 "Hg28 mi
6:00 PM85 °FPassing clouds.N/A45%29.93 "Hg22 mi
5:00 PM86 °FPassing clouds.N/A51%29.94 "Hg25 mi
4:00 PM86 °FPassing clouds.5 mph47%29.95 "Hg19 mi
3:00 PM86 °FPassing clouds.5 mph44%29.96 "Hg15 mi
2:00 PM85 °FPassing clouds.6 mph48%29.98 "Hg19 mi
1:00 PM84 °FPassing clouds.N/A53%30.00 "Hg12 mi
12:00 PM83 °FPassing clouds.N/A56%30.01 "Hg19 mi
11:00 AM79 °FPassing clouds.5 mph61%30.03 "Hg13 mi
10:00 AM75 °FPassing clouds.3 mph66%30.04 "Hg19 mi
9:00 AM71 °FPassing clouds.6 mph72%30.04 "Hg16 mi
8:00 AM69 °FPassing clouds.6 mph75%30.03 "Hg19 mi
7:00 AM66 °FPassing clouds.5 mph84%30.04 "Hg25 mi
6:00 AM65 °FPassing clouds.5 mph90%30.03 "Hg18 mi
5:00 AM65 °FPassing clouds.N/A89%30.02 "Hg17 mi
4:00 AM62 °FPassing clouds.N/A95%30.04 "Hg11 mi
3:00 AM64 °FPassing clouds.N/A93%30.03 "Hg11 mi
2:00 AM64 °FMild.N/A94%30.03 "Hg11 mi
1:00 AM66 °FPassing clouds.N/A91%30.03 "Hg12 mi
12:00 AM66 °FMild.N/A89%30.04 "Hg15 mi
11:00 PM
Sat, Aug 27
69 °FClear.N/A84%30.03 "Hg16 mi
10:00 PM71 °FClear.N/A81%30.02 "Hg22 mi
9:00 PM73 °FClear.N/A79%30.01 "Hg28 mi
8:00 PM77 °FClear.N/A66%29.99 "Hg25 mi
Weather by CustomWeather, © 2016

See weather overviewHow to use our weather pages